[[{"header":{"parameterUnit":"m.s-1","parameterCategory":1,"la1":30.2991,"la2":30.254,"lo1":-89.0895,"lo2":-89.0444,"dy":0.0017,"dx":0.0017,"nx":28,"ny":28,"refTime":"2025-11-07T03:00:00:Z","depth":0,"parameterNumber":2,"parameterNumberName":"U-component_of_WINDS"},"data":[0,0,0,0,0,0,0,0,0,0,0,0,0,0,0,0,0,0,0,0,0,0,0,0,0,0,0,0,0,0,0,0,0,0,0,0,0,0,0,0,0,0,0,0,0,0,0,0,0,0,0,0,0,0,0,0,0,0,0.2885,0.2884,0,0.2781,0.278,0.2779,0.2724,0.2724,0.2724,0.2724,0.2615,0.2612,0.2609,0,0,0,0,0,0,0,0,0,0,0,0,0,0.3037,0.3034,0.2885,0.2884,0.2883,0.2781,0.278,0.2778,0.2724,0.2724,0.2724,0.2724,0.2616,0.2612,0.2609,0,0,0,0,0,0,0,0,0,0,0,0,0,0.2955,0.3033,0.2886,0.2844,0.2839,0.2781,0.278,0.2778,0.2724,0.2724,0.2724,0.2724,0.2617,0.2613,0.2608,0.2584,0,0,0.2595,0.2593,0,0,0,0,0,0,0,0,0.296,0.295,0.2851,0.2846,0.2841,0.2766,0.2793,0.2713,0.2724,0.2768,0.2724,0.2724,0.2665,0.2657,0.2637,0.2579,0.2574,0.2595,0.2592,0.259,0.2589,0,0,0,0,0,0,0,0.2966,0.2954,0.2844,0.285,0.2844,0.283,0.2818,0.2777,0.2718,0.2764,0.276,0.2748,0.2662,0.2641,0.2634,0.2572,0.2595,0.2591,0.2589,0.2587,0.249,0.249,0,0,0,0,0,0,0.2978,0.2959,0.2847,0.2841,0.2902,0.2827,0.2814,0.279,0.2718,0.2707,0.2748,0.2746,0.2649,0.2639,0.263,0.2597,0.2591,0.2587,0.2584,0.249,0.249,0.249,0,0,0,0,0,0,0.2982,0.2969,0.2851,0.2899,0.2883,0.2824,0.2798,0.2788,0.2767,0.2707,0.2696,0.2738,0.2648,0.2636,0.2596,0.2593,0.2585,0.2581,0.249,0.249,0.249,0.2532,0,0,0,0,0,0,0.2986,0.2971,0.2961,0.2899,0.2881,0.282,0.2798,0.2786,0.276,0.2756,0.2694,0.2684,0.2647,0.2603,0.2592,0.2587,0.2577,0.249,0.249,0.249,0.253,0.2533,0.2535,0,0,0,0,0,0.2992,0.2976,0.2961,0.2947,0.2867,0.282,0.2809,0.2768,0.276,0.275,0.2711,0.2686,0.2595,0.2599,0.2586,0.258,0.249,0.249,0.249,0.2529,0.2532,0.2535,0,0,0,0,0,0,0.3037,0.2967,0.2949,0.2913,0.2873,0.2811,0.2796,0.2773,0.2733,0.2731,0.2681,0.2668,0.2632,0.2602,0.2608,0.2553,0.254,0.2537,0.2574,0.2577,0.2579,0.2587,0.2574,0,0,0,0,0,0.3044,0.3012,0.2951,0.2925,0.2906,0.2855,0.2833,0.2805,0.2761,0.2743,0.2702,0.266,0.2622,0.2597,0.2559,0.2526,0.2512,0.2515,0.2518,0.252,0.2518,0.2499,0.25,0.249,0.249,0.249,0,0,0.3055,0.3013,0.2995,0.2933,0.2899,0.2867,0.2841,0.2807,0.2783,0.2738,0.2698,0.2666,0.2616,0.258,0.2561,0.2553,0.2518,0.252,0.2522,0.2519,0.2499,0.25,0.2501,0.249,0.249,0.249,0,0,0.306,0.3025,0.2999,0.2966,0.2915,0.2881,0.2876,0.2817,0.2795,0.2754,0.272,0.269,0.2626,0.2592,0.2566,0.256,0.2535,0.2549,0.2562,0.2544,0.2545,0.2545,0.2543,0.2543,0.2547,0.2547,0.2547,0,0.3081,0.3031,0.2989,0.2958,0.2932,0.2891,0.2865,0.2835,0.2773,0.2756,0.2748,0.2667,0.263,0.2586,0.2585,0.2565,0.2557,0.2555,0.2548,0.2548,0.2548,0.2546,0.2545,0.2549,0.2549,0.2549,0.2549,0,0.3059,0.3026,0.3011,0.2955,0.2927,0.2899,0.2852,0.2829,0.2804,0.2771,0.2731,0.2686,0.2638,0.2625,0.26,0.2577,0.2574,0.2558,0.2543,0.2552,0.2549,0.2548,0.2552,0.2551,0.2551,0.255,0,0,0.3088,0.3011,0.3006,0.2981,0.2922,0.2895,0.2865,0.282,0.2801,0.276,0.2734,0.2681,0.2666,0.2637,0.2608,0.2592,0.2591,0.2577,0.2575,0.2582,0.2564,0.2577,0.2577,0.2575,0.2574,0.2574,0.2569,0,0.3085,0.303,0.2993,0.2952,0.2921,0.2883,0.2857,0.2818,0.2787,0.2756,0.2721,0.2685,0.2667,0.265,0.2633,0.2595,0.2587,0.2595,0.2549,0.2548,0.2563,0.2575,0.2588,0.2585,0.2567,0.2567,0.2567,0,0.3073,0.3036,0.2993,0.294,0.2925,0.2903,0.2859,0.2829,0.2785,0.2763,0.2732,0.2702,0.2669,0.2658,0.2611,0.2618,0.2597,0.2576,0.2575,0.2569,0.2558,0.257,0.2583,0.2583,0.2564,0.2565,0.2565,0,0.31,0.3038,0.3005,0.2984,0.2921,0.2906,0.2879,0.2834,0.281,0.2771,0.2755,0.2713,0.2689,0.2657,0.2617,0.2613,0.2575,0.256,0.2556,0.2557,0.2549,0.255,0.256,0.2536,0.2536,0.2536,0.2536,0,0.31,0.3075,0.3016,0.2996,0.2968,0.2924,0.2897,0.2866,0.2828,0.28,0.2764,0.274,0.2688,0.2656,0.2625,0.2591,0.2581,0.2563,0.2554,0.2566,0.2568,0.2551,0.2551,0.2536,0.2536,0.2536,0.2536,0,0.3124,0.3083,0.3045,0.2989,0.2974,0.2956,0.2907,0.2886,0.2854,0.282,0.2809,0.2759,0.272,0.2677,0.2623,0.2602,0.2571,0.2559,0.2587,0.2582,0.258,0.2581,0.2579,0.2577,0.2555,0.2555,0.2556,0,0.3127,0.3107,0.305,0.303,0.3004,0.2972,0.2947,0.2904,0.288,0.2829,0.2814,0.2773,0.2738,0.2678,0.2636,0.2595,0.2582,0.2585,0.2576,0.2588,0.2583,0.2585,0.2583,0.2587,0.2588,0.2588,0.2588,0,0.3136,0.3117,0.3084,0.3044,0.3016,0.2982,0.2947,0.2932,0.2882,0.2857,0.2818,0.2791,0.2738,0.2698,0.2652,0.2623,0.2597,0.2592,0.2588,0.26,0.2617,0.2608,0.2594,0.2592,0.2591,0.2591,0.2591,0.2591,0.3149,0.3131,0.3088,0.3052,0.3022,0.299,0.2968,0.2933,0.2901,0.2855,0.2831,0.2793,0.275,0.2686,0.2658,0.2628,0.2619,0.2614,0.2613,0.2613,0.2616,0.2622,0.2619,0.2619,0.2619,0.2618,0.2618,0,0.3157,0.3128,0.3096,0.3049,0.3021,0.3,0.2961,0.2938,0.2905,0.2868,0.2835,0.2791,0.2752,0.2708,0.2667,0.2651,0.2638,0.2641,0.2642,0.2636,0.2626,0.2633,0.2652,0.2652,0.2652,0.2652,0.2652,0.2652,0.3158,0.3126,0.3103,0.3055,0.3026,0.2989,0.2968,0.2939,0.2909,0.2862,0.283,0.2802,0.2762,0.2718,0.2682,0.267,0.2656,0.2663,0.2648,0.2639,0.2636,0.2634,0.264,0.2661,0.2661,0.266,0.266,0.266]},{"header":{"parameterUnit":"m.s-1","parameterCategory":1,"la1":30.2991,"la2":30.254,"lo1":-89.0895,"lo2":-89.0444,"dy":0.0017,"dx":0.0017,"nx":28,"ny":28,"refTime":"2025-11-07T03:00:00:Z","depth":0,"parameterNumber":3,"parameterNumberName":"V-component_of_WINDS"},"data":[0,0,0,0,0,0,0,0,0,0,0,0,0,0,0,0,0,0,0,0,0,0,0,0,0,0,0,0,0,0,0,0,0,0,0,0,0,0,0,0,0,0,0,0,0,0,0,0,0,0,0,0,0,0,0,0,0,0,4.0882,4.0884,0,4.0989,4.0991,4.0992,4.1064,4.1065,4.1065,4.1066,4.1173,4.1175,4.1177,0,0,0,0,0,0,0,0,0,0,0,0,0,4.074,4.0742,4.0882,4.0884,4.0885,4.0989,4.0991,4.0992,4.1064,4.1065,4.1066,4.1066,4.1172,4.1175,4.1177,0,0,0,0,0,0,0,0,0,0,0,0,0,4.082,4.0743,4.0882,4.0934,4.0939,4.0989,4.0991,4.0993,4.1064,4.1065,4.1066,4.1067,4.1171,4.1174,4.1178,4.1184,0,0,4.1189,4.119,0,0,0,0,0,0,0,0,4.0815,4.0825,4.0925,4.093,4.0937,4.1015,4.098,4.1056,4.1064,4.1017,4.1066,4.1067,4.1119,4.1127,4.1145,4.1189,4.1193,4.1189,4.1191,4.1193,4.1193,0,0,0,0,0,0,0,4.081,4.0821,4.0925,4.0926,4.0933,4.0951,4.0964,4.0995,4.1062,4.1021,4.1026,4.1038,4.1123,4.1142,4.1148,4.1195,4.1189,4.1192,4.1194,4.1195,4.1253,4.1253,0,0,0,0,0,0,4.0796,4.0816,4.0921,4.0928,4.0877,4.0953,4.0967,4.0989,4.1062,4.1074,4.1037,4.1041,4.1135,4.1144,4.1152,4.1167,4.1192,4.1196,4.1198,4.1254,4.1253,4.1252,0,0,0,0,0,0,4.0793,4.0805,4.0917,4.0873,4.0889,4.0955,4.0979,4.099,4.101,4.1075,4.1087,4.1045,4.1136,4.1147,4.1177,4.1172,4.1197,4.1201,4.1254,4.1253,4.1253,4.1194,0,0,0,0,0,0,4.0788,4.0803,4.0806,4.0873,4.0891,4.0939,4.0978,4.0992,4.1016,4.1022,4.1085,4.1096,4.1138,4.1171,4.118,4.1177,4.1203,4.1255,4.1254,4.1253,4.1197,4.1191,4.1187,0,0,0,0,0,4.0783,4.0783,4.0806,4.0818,4.0896,4.0939,4.0949,4.0998,4.1015,4.1019,4.1061,4.1094,4.1171,4.1173,4.1184,4.1182,4.1256,4.1254,4.1253,4.1199,4.1192,4.1187,0,0,0,0,0,0,4.0712,4.0793,4.0818,4.0841,4.0882,4.0951,4.0956,4.0989,4.1026,4.103,4.1088,4.1102,4.1126,4.1157,4.1158,4.1194,4.1217,4.1218,4.1173,4.1167,4.1162,4.1154,4.1206,0,0,0,0,0,4.0699,4.0727,4.0797,4.081,4.083,4.0889,4.091,4.0945,4.099,4.1007,4.1052,4.1094,4.1128,4.1149,4.1184,4.1202,4.1218,4.1206,4.1201,4.1197,4.1197,4.1212,4.1209,4.1248,4.1248,4.1248,0,0,4.0672,4.072,4.0734,4.0797,4.0833,4.0862,4.0903,4.0931,4.0953,4.1011,4.1043,4.1077,4.1128,4.1153,4.1166,4.1179,4.119,4.1195,4.1191,4.1194,4.1211,4.1207,4.1203,4.1247,4.1247,4.1248,0,0,4.0638,4.0676,4.0693,4.073,4.0786,4.0826,4.083,4.0895,4.0921,4.0953,4.0999,4.1026,4.1082,4.1118,4.1144,4.1128,4.1161,4.1138,4.1112,4.1126,4.1123,4.1121,4.1117,4.1115,4.1138,4.1138,4.1138,0,4.0597,4.0643,4.0697,4.0724,4.0751,4.0807,4.0826,4.0858,4.0921,4.0939,4.0954,4.103,4.1067,4.1103,4.11,4.1118,4.1126,4.1131,4.1119,4.1117,4.1116,4.1114,4.1112,4.1135,4.1135,4.1135,4.1136,0,4.0591,4.0622,4.0629,4.0692,4.072,4.0741,4.08,4.0822,4.0855,4.0895,4.0929,4.0978,4.1025,4.1036,4.1067,4.1077,4.1084,4.1108,4.1133,4.1108,4.1107,4.1106,4.113,4.1131,4.1132,4.1133,0,0,4.0512,4.0609,4.061,4.0641,4.0709,4.0734,4.076,4.0808,4.0827,4.0869,4.0893,4.0942,4.0966,4.0995,4.1032,4.1044,4.1033,4.1067,4.107,4.1061,4.105,4.1032,4.103,4.1055,4.1055,4.1055,4.1046,0,4.049,4.054,4.0592,4.0624,4.0655,4.0711,4.0734,4.0778,4.0816,4.0848,4.089,4.0925,4.0952,4.0971,4.0986,4.1031,4.1031,4.1032,4.1079,4.108,4.1065,4.1029,4.101,4.1,4.1046,4.1046,4.1046,0,4.047,4.0513,4.0549,4.0618,4.0633,4.0652,4.0703,4.0732,4.0784,4.0812,4.0846,4.0886,4.0917,4.0939,4.0984,4.0983,4.1006,4.1031,4.1032,4.1039,4.1061,4.1037,4.0997,4.0996,4.1045,4.1045,4.1045,0,4.0412,4.0479,4.051,4.0535,4.0615,4.0628,4.0661,4.0715,4.0742,4.0786,4.0805,4.085,4.0876,4.0912,4.0964,4.0974,4.1004,4.1029,4.1029,4.1028,4.1032,4.1032,4.0997,4.1045,4.1045,4.1045,4.1045,0,4.0383,4.0403,4.0486,4.0505,4.053,4.059,4.0613,4.0652,4.07,4.0728,4.0779,4.0804,4.0871,4.0905,4.0945,4.0978,4.0989,4.1013,4.1023,4.1009,4.1006,4.1025,4.1027,4.1044,4.1044,4.1045,4.1045,0,4.0322,4.0378,4.0417,4.0491,4.051,4.0525,4.0589,4.061,4.0653,4.0688,4.07,4.0766,4.0809,4.0865,4.0924,4.0952,4.0981,4.0997,4.0963,4.097,4.0967,4.0967,4.0945,4.0946,4.099,4.099,4.0989,0,4.03,4.0317,4.0394,4.0418,4.0451,4.0487,4.0516,4.0577,4.0605,4.0668,4.0682,4.073,4.0771,4.0837,4.0891,4.0937,4.0956,4.0945,4.0963,4.0949,4.0958,4.0957,4.096,4.094,4.0939,4.0939,4.0938,0,4.0255,4.0283,4.0323,4.0375,4.0408,4.0451,4.0495,4.0512,4.0582,4.0611,4.0657,4.0689,4.0752,4.0799,4.0853,4.0889,4.0926,4.0932,4.0935,4.0921,4.0902,4.0914,4.0953,4.0932,4.0933,4.0933,4.0934,4.0934,4.0214,4.0234,4.0293,4.0337,4.0378,4.0419,4.0444,4.0491,4.0531,4.0588,4.0621,4.0666,4.0722,4.0799,4.0834,4.087,4.0884,4.0887,4.0889,4.0889,4.0885,4.0895,4.088,4.0881,4.0881,4.0881,4.0881,0,4.0174,4.0216,4.0256,4.0319,4.0354,4.0388,4.044,4.0467,4.0507,4.0556,4.0596,4.065,4.0697,4.0756,4.0807,4.0826,4.0844,4.0837,4.0837,4.0845,4.0869,4.0862,4.0822,4.0822,4.0822,4.0822,4.0822,4.0822,4.0158,4.0194,4.0229,4.0287,4.0328,4.0374,4.0401,4.0441,4.0481,4.054,4.058,4.0618,4.0672,4.0729,4.0774,4.079,4.0807,4.0796,4.0817,4.0838,4.0843,4.0848,4.0842,4.0798,4.0798,4.0791,4.0791,4.0791]}]]